RMJ405 EKCH-ENTC

Flight info

Callsign RMJ405
Flight time 2h 50m
Altitude 34000
Route VEDAR L997 RISMA DCT SABAK L997 REGMA DCT EDEXU DCT PESOS DCT BARVI
Aircraft RJ70/M-SDFGIRWY/LB1

Departure

Time 2026-04-26 00:38
Airport Copenhagen Kastrup Airport (EKCH)

Arrival

Time 2026-04-26 03:28
Airport Tromsø Airport (ENTC)
Time Latitude Longitude Altitude Speed Heading
2026-04-26 00:02 55.62357 12.65769 23 ft 0 kts 38°
2026-04-26 00:25 55.62358 12.65771 23 ft 0 kts 52°
2026-04-26 00:26 55.62357 12.65778 26 ft 1 kts 124°
2026-04-26 00:26 55.62350 12.65772 23 ft 2 kts 233°
2026-04-26 00:26 55.62326 12.65740 8 ft 6 kts 192°
2026-04-26 00:26 55.62300 12.65679 23 ft 8 kts 276°
2026-04-26 00:27 55.62297 12.65566 23 ft 10 kts 267°
2026-04-26 00:27 55.62296 12.65452 23 ft 8 kts 270°
2026-04-26 00:27 55.62296 12.65357 23 ft 7 kts 269°
2026-04-26 00:27 55.62294 12.65268 23 ft 7 kts 265°
2026-04-26 00:28 55.62264 12.65202 23 ft 8 kts 194°
2026-04-26 00:28 55.62222 12.65217 25 ft 2 kts 199°
2026-04-26 00:28 55.62208 12.65190 23 ft 4 kts 229°
2026-04-26 00:28 55.62180 12.65145 24 ft 7 kts 215°
2026-04-26 00:29 55.62128 12.65085 26 ft 11 kts 213°
2026-04-26 00:29 55.62053 12.65000 24 ft 15 kts 214°
2026-04-26 00:29 55.61956 12.64886 23 ft 18 kts 212°
2026-04-26 00:29 55.61856 12.64773 23 ft 16 kts 214°
2026-04-26 00:30 55.61768 12.64671 26 ft 14 kts 213°
2026-04-26 00:30 55.61691 12.64582 25 ft 12 kts 213°
2026-04-26 00:30 55.61622 12.64502 23 ft 11 kts 213°
2026-04-26 00:30 55.61556 12.64426 23 ft 11 kts 213°
2026-04-26 00:31 55.61490 12.64351 23 ft 11 kts 212°
2026-04-26 00:31 55.61427 12.64279 23 ft 11 kts 213°
2026-04-26 00:31 55.61362 12.64204 26 ft 11 kts 213°
2026-04-26 00:31 55.61297 12.64129 25 ft 12 kts 213°
2026-04-26 00:32 55.61223 12.64044 24 ft 13 kts 213°
2026-04-26 00:32 55.61146 12.63955 25 ft 13 kts 213°
2026-04-26 00:32 55.60986 12.63772 25 ft 14 kts 212°
2026-04-26 00:33 55.60905 12.63677 23 ft 14 kts 211°
2026-04-26 00:33 55.60822 12.63583 24 ft 14 kts 212°
2026-04-26 00:33 55.60723 12.63471 23 ft 20 kts 213°
2026-04-26 00:33 55.60609 12.63318 23 ft 20 kts 221°
2026-04-26 00:34 55.60526 12.63216 23 ft 11 kts 189°
2026-04-26 00:34 55.60467 12.63272 23 ft 8 kts 131°
2026-04-26 00:34 55.60464 12.63278 23 ft 0 kts 131°
2026-04-26 00:35 55.60454 12.63299 23 ft 5 kts 131°
2026-04-26 00:35 55.60416 12.63381 25 ft 12 kts 117°
2026-04-26 00:36 55.60463 12.63536 24 ft 19 kts 43°
2026-04-26 00:36 55.60623 12.63784 25 ft 47 kts 42°
2026-04-26 00:36 55.60957 12.64300 24 ft 80 kts 41°
2026-04-26 00:36 55.61447 12.65059 23 ft 107 kts 41°
2026-04-26 00:37 55.62074 12.65999 54 ft 125 kts 37°
2026-04-26 00:37 55.62763 12.67045 112 ft 137 kts 38°
2026-04-26 00:37 55.63494 12.68154 287 ft 139 kts 36°
2026-04-26 00:37 55.64208 12.69305 507 ft 141 kts 38°
2026-04-26 00:38 55.65014 12.70486 576 ft 159 kts 27°
2026-04-26 00:38 55.66125 12.70745 636 ft 171 kts 356°
2026-04-26 00:38 55.67386 12.70603 682 ft 197 kts 354°
2026-04-26 00:38 55.68818 12.70384 925 ft 215 kts 354°
2026-04-26 00:39 55.70357 12.70120 1252 ft 228 kts 355°
2026-04-26 00:39 55.71936 12.69861 1859 ft 227 kts 355°
2026-04-26 00:39 55.73505 12.69622 2463 ft 226 kts 356°
2026-04-26 00:39 55.75078 12.69403 2980 ft 228 kts 356°
2026-04-26 00:40 55.76676 12.69206 3461 ft 231 kts 356°
2026-04-26 00:40 55.78291 12.69016 3939 ft 234 kts 356°
2026-04-26 00:40 55.79923 12.68845 4416 ft 236 kts 356°
2026-04-26 00:40 55.81574 12.68667 4885 ft 239 kts 354°
2026-04-26 00:41 55.83123 12.67703 5347 ft 241 kts 321°
2026-04-26 00:41 55.84015 12.65174 5868 ft 249 kts 291°
2026-04-26 00:41 55.84497 12.62201 6411 ft 251 kts 291°
2026-04-26 00:41 55.85016 12.59234 6965 ft 252 kts 292°
2026-04-26 00:42 55.85537 12.56253 7558 ft 252 kts 292°
2026-04-26 00:42 55.86076 12.53280 8200 ft 252 kts 294°
2026-04-26 00:42 55.86644 12.50325 8858 ft 253 kts 295°
2026-04-26 00:42 55.87244 12.47372 9522 ft 254 kts 296°
2026-04-26 00:43 55.87865 12.44421 10236 ft 254 kts 297°
2026-04-26 00:43 55.88504 12.41485 10956 ft 254 kts 298°
2026-04-26 00:43 55.89150 12.38578 11702 ft 252 kts 300°
2026-04-26 00:43 55.89815 12.35643 12198 ft 262 kts 300°
2026-04-26 00:44 55.90742 12.32830 12408 ft 265 kts 321°
2026-04-26 00:44 55.92393 12.31416 12667 ft 271 kts 348°
2026-04-26 00:44 55.94266 12.30896 13141 ft 272 kts 347°
2026-04-26 00:44 55.96120 12.30225 13700 ft 272 kts 346°
2026-04-26 00:45 55.97968 12.29529 14193 ft 271 kts 346°
2026-04-26 00:45 55.99790 12.28823 14594 ft 271 kts 345°
2026-04-26 00:45 56.01632 12.28073 14986 ft 272 kts 345°
2026-04-26 00:45 56.03495 12.27265 15376 ft 272 kts 345°
2026-04-26 00:46 56.05335 12.26442 15757 ft 273 kts 344°
2026-04-26 00:46 56.07181 12.25602 16131 ft 274 kts 344°
2026-04-26 00:46 56.09030 12.24748 16515 ft 275 kts 344°
2026-04-26 00:46 56.10858 12.23911 16868 ft 276 kts 345°
2026-04-26 00:47 56.12746 12.23255 17236 ft 277 kts 348°
2026-04-26 00:47 56.14654 12.22703 17591 ft 278 kts 348°
2026-04-26 00:47 56.16569 12.22168 17948 ft 279 kts 349°
2026-04-26 00:47 56.18490 12.21650 18305 ft 280 kts 349°
2026-04-26 00:48 56.20422 12.21134 18604 ft 281 kts 349°
2026-04-26 00:48 56.22361 12.20627 18890 ft 282 kts 349°
2026-04-26 00:48 56.24307 12.20117 19221 ft 283 kts 349°
2026-04-26 00:48 56.26249 12.19602 19560 ft 282 kts 349°
2026-04-26 00:49 56.28194 12.19079 19834 ft 283 kts 349°
2026-04-26 00:49 56.30150 12.18555 20108 ft 285 kts 349°
2026-04-26 00:49 56.32110 12.18025 20383 ft 286 kts 349°
2026-04-26 00:49 56.34078 12.17476 20657 ft 287 kts 349°
2026-04-26 00:50 56.36050 12.16929 20927 ft 287 kts 348°
2026-04-26 00:50 56.38031 12.16374 21192 ft 289 kts 349°
2026-04-26 00:50 56.40020 12.15813 21321 ft 292 kts 348°
2026-04-26 00:50 56.42049 12.15254 21450 ft 296 kts 348°
2026-04-26 00:51 56.44091 12.14684 21713 ft 297 kts 349°
2026-04-26 00:51 56.46118 12.14121 21977 ft 298 kts 348°
2026-04-26 00:51 56.48171 12.13551 22238 ft 299 kts 348°
2026-04-26 00:51 56.50230 12.12970 22492 ft 300 kts 349°
2026-04-26 00:52 56.52295 12.12394 22793 ft 301 kts 348°
2026-04-26 00:52 56.54363 12.11813 23107 ft 300 kts 348°
2026-04-26 00:52 56.56431 12.11225 23354 ft 301 kts 348°
2026-04-26 00:52 56.58505 12.10638 23586 ft 302 kts 348°
2026-04-26 00:53 56.60591 12.10053 23787 ft 304 kts 348°
2026-04-26 00:53 56.62682 12.09460 23978 ft 305 kts 348°
2026-04-26 00:53 56.64786 12.08857 24167 ft 306 kts 348°
2026-04-26 00:53 56.66895 12.08259 24347 ft 307 kts 348°
2026-04-26 00:54 56.68980 12.07665 24538 ft 308 kts 348°
2026-04-26 00:54 56.71106 12.07054 24681 ft 310 kts 348°
2026-04-26 00:54 56.73245 12.06450 24855 ft 311 kts 348°
2026-04-26 00:54 56.75384 12.05834 25079 ft 311 kts 348°
2026-04-26 00:55 56.77520 12.05222 25308 ft 311 kts 348°
2026-04-26 00:55 56.79654 12.04606 25535 ft 310 kts 348°
2026-04-26 00:55 56.81778 12.03995 25894 ft 307 kts 348°
2026-04-26 00:55 56.83878 12.03394 26279 ft 302 kts 348°
2026-04-26 00:56 56.85945 12.02813 26598 ft 299 kts 348°
2026-04-26 00:56 56.88000 12.02239 26839 ft 299 kts 348°
2026-04-26 00:56 56.89361 12.01860 26986 ft 298 kts 347°
2026-04-26 00:56 56.91409 12.01269 27208 ft 298 kts 347°
2026-04-26 00:57 56.93452 12.00673 27418 ft 297 kts 347°
2026-04-26 00:57 56.95495 12.00075 27630 ft 297 kts 347°
2026-04-26 00:57 56.97537 11.99479 27842 ft 297 kts 347°
2026-04-26 00:57 56.99571 11.98882 28049 ft 296 kts 347°
2026-04-26 00:58 57.01604 11.98284 28254 ft 296 kts 347°
2026-04-26 00:58 57.03638 11.97688 28455 ft 295 kts 347°
2026-04-26 00:58 57.05667 11.97108 28654 ft 295 kts 347°
2026-04-26 00:58 57.07697 11.96525 28851 ft 295 kts 347°
2026-04-26 00:59 57.09714 11.95940 29142 ft 292 kts 347°
2026-04-26 00:59 57.11721 11.95357 29375 ft 291 kts 347°
2026-04-26 00:59 57.13721 11.94782 29556 ft 291 kts 347°
2026-04-26 00:59 57.15720 11.94206 29747 ft 290 kts 347°
2026-04-26 01:00 57.17716 11.93637 29927 ft 290 kts 347°
2026-04-26 01:00 57.19711 11.93060 30061 ft 290 kts 347°
2026-04-26 01:00 57.21715 11.92463 30032 ft 294 kts 346°
2026-04-26 01:00 57.23743 11.91857 30096 ft 296 kts 346°
2026-04-26 01:01 57.25781 11.91260 30247 ft 296 kts 346°
2026-04-26 01:01 57.27818 11.90662 30385 ft 296 kts 346°
2026-04-26 01:01 57.29832 11.90077 30523 ft 296 kts 346°
2026-04-26 01:01 57.31871 11.89485 30656 ft 296 kts 346°
2026-04-26 01:02 57.33904 11.88894 30789 ft 296 kts 346°
2026-04-26 01:02 57.35939 11.88302 30921 ft 296 kts 346°
2026-04-26 01:02 57.37969 11.87708 31166 ft 293 kts 346°
2026-04-26 01:02 57.39978 11.87106 31338 ft 292 kts 346°
2026-04-26 01:03 57.41986 11.86514 31471 ft 292 kts 346°
2026-04-26 01:03 57.43962 11.85933 31582 ft 292 kts 346°
2026-04-26 01:03 57.45966 11.85346 31708 ft 292 kts 346°
2026-04-26 01:03 57.47972 11.84757 31761 ft 293 kts 346°
2026-04-26 01:04 57.50001 11.84172 31763 ft 297 kts 346°
2026-04-26 01:04 57.52052 11.83581 31768 ft 300 kts 346°
2026-04-26 01:04 57.56214 11.82374 31782 ft 306 kts 347°
2026-04-26 01:05 57.60454 11.81144 31801 ft 311 kts 347°
2026-04-26 01:05 57.64763 11.79884 31894 ft 314 kts 347°
2026-04-26 01:06 57.66917 11.79241 32097 ft 312 kts 346°
2026-04-26 01:06 57.69062 11.78579 32231 ft 312 kts 346°
2026-04-26 01:06 57.71202 11.77936 32336 ft 312 kts 346°
2026-04-26 01:06 57.73316 11.77306 32437 ft 312 kts 346°
2026-04-26 01:07 57.75459 11.76668 32539 ft 311 kts 346°
2026-04-26 01:07 57.77600 11.76029 32633 ft 311 kts 346°
2026-04-26 01:07 57.81906 11.74742 32830 ft 311 kts 346°
2026-04-26 01:08 57.86155 11.73466 33025 ft 311 kts 347°
2026-04-26 01:08 57.90427 11.72182 33219 ft 311 kts 347°
2026-04-26 01:09 57.94697 11.70895 33478 ft 310 kts 346°
2026-04-26 01:09 57.96817 11.70245 33639 ft 308 kts 346°
2026-04-26 01:09 57.98932 11.69601 33732 ft 308 kts 346°
2026-04-26 01:10 58.03157 11.68314 33886 ft 308 kts 346°
2026-04-26 01:10 58.07383 11.67030 34050 ft 308 kts 346°
2026-04-26 01:11 58.09475 11.66395 34119 ft 300 kts 346°
2026-04-26 01:11 58.11522 11.65751 34140 ft 297 kts 346°
2026-04-26 01:11 58.13529 11.65114 34147 ft 296 kts 346°
2026-04-26 01:11 58.15556 11.64485 34143 ft 295 kts 346°
2026-04-26 01:12 58.17584 11.63864 34155 ft 295 kts 347°
2026-04-26 01:12 58.19617 11.63264 34158 ft 296 kts 346°
2026-04-26 01:12 58.21649 11.62630 34163 ft 296 kts 346°
2026-04-26 01:12 58.23688 11.61992 34159 ft 297 kts 346°
2026-04-26 01:13 58.25730 11.61365 34166 ft 298 kts 346°
2026-04-26 01:13 58.27778 11.60735 34164 ft 299 kts 346°
2026-04-26 01:13 58.29832 11.60105 34163 ft 299 kts 346°
2026-04-26 01:13 58.31888 11.59472 34162 ft 300 kts 346°
2026-04-26 01:14 58.33951 11.58837 34166 ft 300 kts 346°
2026-04-26 01:14 58.36014 11.58201 34167 ft 301 kts 346°
2026-04-26 01:14 58.40160 11.56919 34160 ft 302 kts 346°
2026-04-26 01:15 58.44320 11.55628 34159 ft 303 kts 346°
2026-04-26 01:15 58.48490 11.54331 34159 ft 304 kts 346°
2026-04-26 01:16 58.52667 11.53031 34194 ft 305 kts 347°
2026-04-26 01:16 58.56850 11.51732 34169 ft 304 kts 346°
2026-04-26 01:17 58.61021 11.50415 34165 ft 303 kts 346°
2026-04-26 01:17 58.65177 11.49103 34162 ft 303 kts 346°
2026-04-26 01:18 58.69311 11.47803 34170 ft 303 kts 347°
2026-04-26 01:18 58.73478 11.46488 34167 ft 304 kts 346°
2026-04-26 01:19 58.77650 11.45160 34164 ft 304 kts 346°
2026-04-26 01:19 58.81823 11.43833 34196 ft 304 kts 346°
2026-04-26 01:20 58.86004 11.42522 34159 ft 305 kts 346°
2026-04-26 01:20 58.90203 11.41190 34167 ft 307 kts 346°
2026-04-26 01:21 58.94352 11.39864 34171 ft 308 kts 346°
2026-04-26 01:21 58.98602 11.38502 34166 ft 308 kts 346°
2026-04-26 01:22 59.02836 11.37143 34172 ft 308 kts 346°
2026-04-26 01:22 59.07070 11.35784 34172 ft 308 kts 346°
2026-04-26 01:23 59.11316 11.34541 34204 ft 311 kts 351°
2026-04-26 01:23 59.15674 11.34617 34172 ft 314 kts 355°
2026-04-26 01:24 59.20035 11.35048 34172 ft 314 kts 355°
2026-04-26 01:24 59.24390 11.35528 34171 ft 313 kts 355°
2026-04-26 01:25 59.28708 11.35923 34174 ft 313 kts 355°
2026-04-26 01:25 59.33058 11.36300 34168 ft 313 kts 355°
2026-04-26 01:26 59.37406 11.36689 34172 ft 313 kts 355°
2026-04-26 01:26 59.41760 11.37083 34190 ft 313 kts 355°
2026-04-26 01:27 59.46104 11.37474 34174 ft 312 kts 355°
2026-04-26 01:27 59.50427 11.37868 34174 ft 311 kts 355°
2026-04-26 01:28 59.54747 11.38263 34175 ft 311 kts 355°
2026-04-26 01:28 59.59067 11.38660 34168 ft 311 kts 355°
2026-04-26 01:29 59.63386 11.39060 34167 ft 311 kts 355°
2026-04-26 01:29 59.67705 11.39460 34169 ft 311 kts 355°
2026-04-26 01:30 59.72020 11.39867 34179 ft 309 kts 355°
2026-04-26 01:30 59.76305 11.40285 34170 ft 307 kts 355°
2026-04-26 01:31 59.80503 11.40665 34166 ft 307 kts 355°
2026-04-26 01:31 59.84786 11.41063 34169 ft 307 kts 355°
2026-04-26 01:32 59.89060 11.41453 34171 ft 308 kts 355°
2026-04-26 01:32 59.93340 11.41869 34173 ft 308 kts 355°
2026-04-26 01:33 59.97630 11.42261 34206 ft 309 kts 355°
2026-04-26 01:33 60.01918 11.42662 34192 ft 308 kts 355°
2026-04-26 01:34 60.06192 11.43045 34179 ft 307 kts 354°
2026-04-26 01:34 60.10454 11.43439 34179 ft 306 kts 355°
2026-04-26 01:35 60.14713 11.43838 34171 ft 306 kts 355°
2026-04-26 01:35 60.18971 11.44239 34169 ft 306 kts 355°
2026-04-26 01:36 60.23227 11.44647 34167 ft 306 kts 355°
2026-04-26 01:37 60.29623 11.45246 34151 ft 307 kts 354°
2026-04-26 01:37 60.33869 11.45661 34169 ft 308 kts 354°
2026-04-26 01:38 60.38161 11.46075 34188 ft 310 kts 354°
2026-04-26 01:38 60.42475 11.46497 34176 ft 311 kts 354°
2026-04-26 01:39 60.46788 11.46922 34167 ft 310 kts 354°
2026-04-26 01:39 60.51097 11.47347 34161 ft 309 kts 354°
2026-04-26 01:40 60.55393 11.47753 34213 ft 309 kts 354°
2026-04-26 01:40 60.59684 11.48107 34176 ft 307 kts 353°
2026-04-26 01:41 60.63945 11.48486 34178 ft 306 kts 353°
2026-04-26 01:41 60.68180 11.48896 34188 ft 307 kts 354°
2026-04-26 01:42 60.72443 11.49318 34190 ft 307 kts 354°
2026-04-26 01:42 60.76709 11.49739 34178 ft 307 kts 354°
2026-04-26 01:43 60.80972 11.50156 34175 ft 307 kts 353°
2026-04-26 01:43 60.85229 11.50567 34202 ft 306 kts 353°
2026-04-26 01:44 60.89496 11.50977 34185 ft 307 kts 354°
2026-04-26 01:44 60.93764 11.51402 34172 ft 307 kts 353°
2026-04-26 01:45 60.97312 11.51754 34168 ft 307 kts 353°
2026-04-26 01:45 61.01578 11.52176 34168 ft 307 kts 354°
2026-04-26 01:46 61.06533 11.52686 34157 ft 306 kts 354°
2026-04-26 01:46 61.10790 11.53113 34176 ft 306 kts 353°
2026-04-26 01:47 61.14362 11.53454 34173 ft 307 kts 353°
2026-04-26 01:47 61.18631 11.53886 34181 ft 308 kts 353°
2026-04-26 01:48 61.22882 11.54317 34171 ft 307 kts 353°
2026-04-26 01:48 61.27153 11.54745 34156 ft 307 kts 353°
2026-04-26 01:49 61.31411 11.55169 34167 ft 306 kts 353°
2026-04-26 01:49 61.35669 11.55598 34168 ft 306 kts 353°
2026-04-26 01:50 61.39930 11.56039 34170 ft 307 kts 353°
2026-04-26 01:50 61.44191 11.56479 34188 ft 307 kts 354°
2026-04-26 01:51 61.48477 11.56987 34179 ft 310 kts 354°
2026-04-26 01:51 61.52761 11.57451 34174 ft 311 kts 354°
2026-04-26 01:52 61.57081 11.57906 34165 ft 311 kts 354°
2026-04-26 01:52 61.61371 11.58349 34181 ft 311 kts 353°
2026-04-26 01:53 61.65692 11.58793 34167 ft 311 kts 354°
2026-04-26 01:53 61.70015 11.59245 34165 ft 311 kts 354°
2026-04-26 01:54 61.74336 11.59699 34211 ft 311 kts 354°
2026-04-26 01:54 61.78681 11.60178 34182 ft 314 kts 354°
2026-04-26 01:55 61.83051 11.60681 34177 ft 315 kts 354°
2026-04-26 01:55 61.87424 11.61185 34171 ft 314 kts 354°
2026-04-26 01:56 61.91797 11.61647 34164 ft 314 kts 354°
2026-04-26 01:56 61.96131 11.62094 34159 ft 314 kts 354°
2026-04-26 01:57 62.00487 11.62555 34171 ft 314 kts 354°
2026-04-26 01:57 62.04850 11.63030 34169 ft 314 kts 354°
2026-04-26 01:58 62.09221 11.63512 34156 ft 315 kts 354°
2026-04-26 01:58 62.13599 11.64007 34083 ft 315 kts 354°
2026-04-26 01:59 62.17972 11.64496 34133 ft 316 kts 354°
2026-04-26 01:59 62.22379 11.64988 34150 ft 318 kts 354°
2026-04-26 02:00 62.26814 11.65494 34166 ft 320 kts 354°
2026-04-26 02:00 62.31271 11.65980 34165 ft 321 kts 354°
2026-04-26 02:01 62.35740 11.66459 34188 ft 321 kts 354°
2026-04-26 02:01 62.40131 11.66937 34158 ft 320 kts 354°
2026-04-26 02:02 62.44576 11.67441 34154 ft 320 kts 354°
2026-04-26 02:02 62.49021 11.67948 34153 ft 320 kts 354°
2026-04-26 02:03 62.53440 11.68433 34147 ft 320 kts 354°
2026-04-26 02:03 62.57883 11.68914 34072 ft 320 kts 354°
2026-04-26 02:04 62.62329 11.69417 34078 ft 320 kts 354°
2026-04-26 02:04 62.66779 11.69908 34107 ft 321 kts 355°
2026-04-26 02:05 62.71261 11.70429 34091 ft 323 kts 355°
2026-04-26 02:05 62.75744 11.70917 34093 ft 323 kts 355°
2026-04-26 02:06 62.80222 11.71410 34105 ft 322 kts 355°
2026-04-26 02:06 62.84704 11.71925 34137 ft 322 kts 355°
2026-04-26 02:07 62.89182 11.72440 34129 ft 323 kts 355°
2026-04-26 02:07 62.93666 11.72937 34146 ft 322 kts 355°
2026-04-26 02:08 62.98156 11.73434 34165 ft 324 kts 355°
2026-04-26 02:08 63.02671 11.73947 34149 ft 325 kts 355°
2026-04-26 02:09 63.07176 11.74455 34139 ft 324 kts 355°
2026-04-26 02:09 63.11675 11.74971 34140 ft 323 kts 355°
2026-04-26 02:10 63.16170 11.75483 34132 ft 324 kts 355°
2026-04-26 02:10 63.20665 11.76006 34136 ft 324 kts 355°
2026-04-26 02:11 63.25165 11.76531 34129 ft 324 kts 356°
2026-04-26 02:11 63.29621 11.77102 34145 ft 325 kts 356°
2026-04-26 02:12 63.34139 11.77706 34134 ft 325 kts 356°
2026-04-26 02:12 63.38647 11.78233 34132 ft 324 kts 356°
2026-04-26 02:13 63.43148 11.78758 34130 ft 324 kts 356°
2026-04-26 02:13 63.47652 11.79288 34123 ft 324 kts 356°
2026-04-26 02:14 63.52158 11.79824 34110 ft 325 kts 356°
2026-04-26 02:14 63.56670 11.80367 34155 ft 324 kts 356°
2026-04-26 02:15 63.61190 11.80905 34122 ft 326 kts 356°
2026-04-26 02:15 63.65730 11.81474 34133 ft 327 kts 356°
2026-04-26 02:16 63.70269 11.82048 34130 ft 326 kts 356°
2026-04-26 02:16 63.74798 11.82608 34117 ft 325 kts 356°
2026-04-26 02:17 63.79320 11.83142 34118 ft 325 kts 356°
2026-04-26 02:17 63.83845 11.83691 34103 ft 326 kts 356°
2026-04-26 02:18 63.88369 11.84242 34140 ft 326 kts 356°
2026-04-26 02:18 63.92877 11.84800 34117 ft 327 kts 356°
2026-04-26 02:19 63.97457 11.85761 34109 ft 334 kts
2026-04-26 02:19 64.01909 11.88976 34099 ft 340 kts 11°
2026-04-26 02:20 64.06350 11.92778 34102 ft 341 kts 11°
2026-04-26 02:20 64.10794 11.96577 34098 ft 341 kts 11°
2026-04-26 02:21 64.15249 12.00312 34103 ft 341 kts 10°
2026-04-26 02:21 64.19471 12.03820 34095 ft 341 kts 10°
2026-04-26 02:22 64.23933 12.07527 34072 ft 341 kts 11°
2026-04-26 02:22 64.28388 12.11262 34081 ft 341 kts 10°
2026-04-26 02:23 64.32847 12.15006 34096 ft 342 kts 11°
2026-04-26 02:23 64.37320 12.18776 34086 ft 342 kts 10°
2026-04-26 02:24 64.41795 12.22554 34078 ft 342 kts 11°
2026-04-26 02:24 64.46268 12.26347 34103 ft 342 kts 11°
2026-04-26 02:25 64.50738 12.30160 34074 ft 342 kts 11°
2026-04-26 02:25 64.55204 12.33984 34067 ft 342 kts 11°
2026-04-26 02:26 64.59659 12.37811 34064 ft 342 kts 11°
2026-04-26 02:26 64.64122 12.41653 34065 ft 342 kts 11°
2026-04-26 02:27 64.68592 12.45507 34075 ft 343 kts 11°
2026-04-26 02:27 64.73066 12.49370 34056 ft 343 kts 11°
2026-04-26 02:28 64.77505 12.53228 34083 ft 342 kts 11°
2026-04-26 02:28 64.81976 12.57078 34055 ft 343 kts 11°
2026-04-26 02:29 64.86461 12.61023 34052 ft 344 kts 11°
2026-04-26 02:29 64.90952 12.64958 34063 ft 344 kts 12°
2026-04-26 02:30 64.95441 12.68910 34038 ft 345 kts 12°
2026-04-26 02:30 64.99931 12.72889 34062 ft 345 kts 12°
2026-04-26 02:31 65.04433 12.76892 34031 ft 345 kts 12°
2026-04-26 02:31 65.08881 12.80863 34038 ft 345 kts 12°
2026-04-26 02:32 65.13380 12.84866 34021 ft 346 kts 12°
2026-04-26 02:32 65.17886 12.88882 34036 ft 347 kts 13°
2026-04-26 02:33 65.22398 12.92992 34034 ft 347 kts 12°
2026-04-26 02:33 65.26895 12.97039 34033 ft 348 kts 12°
2026-04-26 02:34 65.31452 13.01154 34031 ft 348 kts 12°
2026-04-26 02:34 65.35933 13.05287 34030 ft 347 kts 13°
2026-04-26 02:35 65.40450 13.09437 34033 ft 348 kts 13°
2026-04-26 02:35 65.44976 13.13638 34013 ft 349 kts 13°
2026-04-26 02:36 65.48770 13.17130 33990 ft 348 kts 13°
2026-04-26 02:36 65.53301 13.21309 34003 ft 349 kts 13°
2026-04-26 02:37 65.57805 13.25483 33997 ft 349 kts 13°
2026-04-26 02:37 65.62337 13.29697 33993 ft 349 kts 13°
2026-04-26 02:38 65.66894 13.33959 34028 ft 349 kts 13°
2026-04-26 02:38 65.71402 13.38155 33996 ft 350 kts 14°
2026-04-26 02:39 65.75943 13.42433 33989 ft 349 kts 14°
2026-04-26 02:39 65.80474 13.46703 33985 ft 349 kts 14°
2026-04-26 02:40 65.84995 13.50990 33985 ft 349 kts 14°
2026-04-26 02:40 65.89518 13.55295 33985 ft 349 kts 14°
2026-04-26 02:41 65.94049 13.59626 33983 ft 350 kts 14°
2026-04-26 02:41 65.98538 13.63951 34018 ft 351 kts 15°
2026-04-26 02:42 66.03099 13.68332 33983 ft 352 kts 15°
2026-04-26 02:42 66.07651 13.72725 33969 ft 351 kts 15°
2026-04-26 02:43 66.14455 13.79333 33957 ft 350 kts 15°
2026-04-26 02:43 66.18988 13.83759 33951 ft 351 kts 15°
2026-04-26 02:44 66.23527 13.88208 33977 ft 351 kts 15°
2026-04-26 02:44 66.28077 13.92679 33977 ft 352 kts 15°
2026-04-26 02:45 66.32644 13.97255 33959 ft 355 kts 16°
2026-04-26 02:45 66.37237 14.01859 33955 ft 356 kts 15°
2026-04-26 02:46 66.41845 14.06441 33938 ft 356 kts 15°
2026-04-26 02:46 66.46443 14.11031 33931 ft 356 kts 16°
2026-04-26 02:47 66.51039 14.15633 33939 ft 356 kts 16°
2026-04-26 02:47 66.55606 14.20235 33949 ft 357 kts 15°
2026-04-26 02:48 66.60249 14.24949 33957 ft 359 kts 16°
2026-04-26 02:48 66.64855 14.29687 33954 ft 361 kts 16°
2026-04-26 02:49 66.69520 14.34404 33964 ft 363 kts 16°
2026-04-26 02:49 66.74241 14.39248 33962 ft 368 kts 17°
2026-04-26 02:50 66.79001 14.44153 33926 ft 370 kts 17°
2026-04-26 02:50 66.83766 14.49064 33919 ft 369 kts 17°
2026-04-26 02:51 66.88514 14.53997 33959 ft 369 kts 17°
2026-04-26 02:51 66.93192 14.58894 33939 ft 370 kts 17°
2026-04-26 02:52 66.97961 14.63878 33945 ft 371 kts 17°
2026-04-26 02:52 67.02737 14.68890 33927 ft 371 kts 17°
2026-04-26 02:53 67.07503 14.73901 33919 ft 370 kts 17°
2026-04-26 02:53 67.12260 14.78931 33918 ft 369 kts 17°
2026-04-26 02:54 67.17007 14.84006 33910 ft 370 kts 18°
2026-04-26 02:54 67.21755 14.89072 33924 ft 369 kts 17°
2026-04-26 02:55 67.26514 14.94167 33917 ft 370 kts 17°
2026-04-26 02:55 67.31235 14.99265 33913 ft 370 kts 17°
2026-04-26 02:56 67.35977 15.04400 33909 ft 369 kts 17°
2026-04-26 02:56 67.40726 15.09523 33931 ft 370 kts 18°
2026-04-26 02:57 67.45481 15.14737 33921 ft 371 kts 18°
2026-04-26 02:57 67.50236 15.19937 33929 ft 371 kts 18°
2026-04-26 02:58 67.54989 15.25221 33918 ft 372 kts 18°
2026-04-26 02:58 67.59753 15.30467 33911 ft 372 kts 18°
2026-04-26 02:59 67.64514 15.35776 33888 ft 372 kts 18°
2026-04-26 02:59 67.69276 15.41086 33924 ft 372 kts 18°
2026-04-26 03:00 67.74057 15.46429 33914 ft 373 kts 18°
2026-04-26 03:00 67.78819 15.51799 33913 ft 372 kts 18°
2026-04-26 03:01 67.83516 15.57074 33904 ft 374 kts 18°
2026-04-26 03:01 67.88104 15.62260 33859 ft 374 kts 18°
2026-04-26 03:02 67.92888 15.67696 33867 ft 374 kts 18°
2026-04-26 03:02 67.97668 15.73157 33904 ft 374 kts 18°
2026-04-26 03:03 68.02464 15.78661 33887 ft 376 kts 18°
2026-04-26 03:03 68.07263 15.84188 33880 ft 376 kts 18°
2026-04-26 03:04 68.12061 15.89752 33885 ft 376 kts 19°
2026-04-26 03:04 68.16859 15.95451 33878 ft 378 kts 19°
2026-04-26 03:05 68.21693 16.01086 33870 ft 378 kts 19°
2026-04-26 03:05 68.26520 16.06768 33863 ft 378 kts 19°
2026-04-26 03:06 68.31342 16.12467 33852 ft 379 kts 19°
2026-04-26 03:06 68.36164 16.18198 33839 ft 378 kts 19°
2026-04-26 03:07 68.40981 16.23958 33868 ft 379 kts 19°
2026-04-26 03:07 68.45805 16.29794 33848 ft 380 kts 19°
2026-04-26 03:08 68.50640 16.35601 33834 ft 379 kts 20°
2026-04-26 03:08 68.55465 16.41440 33838 ft 380 kts 20°
2026-04-26 03:09 68.57898 16.44401 33424 ft 386 kts 19°
2026-04-26 03:09 68.60352 16.47387 32892 ft 384 kts 19°
2026-04-26 03:09 68.62755 16.50287 32385 ft 381 kts 19°
2026-04-26 03:09 68.65178 16.53224 31882 ft 380 kts 19°
2026-04-26 03:10 68.67591 16.56166 31394 ft 379 kts 19°
2026-04-26 03:10 68.69994 16.59127 30918 ft 378 kts 19°
2026-04-26 03:10 68.72384 16.62110 30461 ft 378 kts 20°
2026-04-26 03:10 68.74751 16.65413 29996 ft 384 kts 23°
2026-04-26 03:11 68.77076 16.69037 29427 ft 384 kts 25°
2026-04-26 03:11 68.79329 16.72709 28882 ft 384 kts 26°
2026-04-26 03:11 68.81662 16.76555 28241 ft 386 kts 26°
2026-04-26 03:11 68.83976 16.80371 27507 ft 387 kts 26°
2026-04-26 03:12 68.86286 16.84214 26771 ft 387 kts 27°
2026-04-26 03:12 68.88594 16.88089 26069 ft 388 kts 27°
2026-04-26 03:12 68.90908 16.91952 25386 ft 389 kts 27°
2026-04-26 03:12 68.93213 16.95783 24713 ft 383 kts 27°
2026-04-26 03:13 68.95492 16.99533 24051 ft 378 kts 27°
2026-04-26 03:13 68.97765 17.03246 23399 ft 380 kts 28°
2026-04-26 03:13 69.00036 17.07027 22614 ft 379 kts 30°
2026-04-26 03:13 69.02123 17.11461 21858 ft 376 kts 39°
2026-04-26 03:14 69.03988 17.16542 21112 ft 373 kts 44°
2026-04-26 03:14 69.05728 17.21878 20386 ft 370 kts 46°
2026-04-26 03:14 69.07403 17.27289 19701 ft 366 kts 47°
2026-04-26 03:14 69.09042 17.32673 19038 ft 361 kts 47°
2026-04-26 03:15 69.10651 17.38021 18430 ft 357 kts 47°
2026-04-26 03:15 69.12243 17.43338 17813 ft 355 kts 47°
2026-04-26 03:15 69.13822 17.48623 17154 ft 351 kts 47°
2026-04-26 03:15 69.15392 17.53814 16489 ft 347 kts 47°
2026-04-26 03:16 69.16942 17.58959 15856 ft 343 kts 46°
2026-04-26 03:16 69.18464 17.63977 15240 ft 340 kts 46°
2026-04-26 03:16 69.20016 17.69055 14645 ft 337 kts 46°
2026-04-26 03:16 69.21507 17.73964 14079 ft 332 kts 46°
2026-04-26 03:17 69.23007 17.78932 13558 ft 326 kts 46°
2026-04-26 03:17 69.24435 17.83709 12986 ft 320 kts 46°
2026-04-26 03:17 69.25860 17.88480 12459 ft 315 kts 46°
2026-04-26 03:17 69.27259 17.93182 11954 ft 311 kts 46°
2026-04-26 03:18 69.28649 17.97826 11449 ft 307 kts 46°
2026-04-26 03:18 69.30026 18.02392 10944 ft 303 kts 46°
2026-04-26 03:18 69.31384 18.06900 10458 ft 299 kts 46°
2026-04-26 03:18 69.32723 18.11362 9983 ft 296 kts 47°
2026-04-26 03:19 69.34031 18.15812 9472 ft 292 kts 47°
2026-04-26 03:19 69.35320 18.20204 8937 ft 288 kts 47°
2026-04-26 03:19 69.36578 18.24567 8419 ft 284 kts 50°
2026-04-26 03:19 69.37458 18.29575 7956 ft 284 kts 67°
2026-04-26 03:20 69.38070 18.34853 7520 ft 281 kts 69°
2026-04-26 03:20 69.38644 18.40137 7123 ft 280 kts 69°
2026-04-26 03:20 69.39183 18.45338 7084 ft 268 kts 70°
2026-04-26 03:20 69.39684 18.50340 6825 ft 262 kts 70°
2026-04-26 03:21 69.40184 18.55298 6466 ft 260 kts 70°
2026-04-26 03:21 69.40670 18.60103 6113 ft 259 kts 70°
2026-04-26 03:21 69.41162 18.65022 5706 ft 258 kts 70°
2026-04-26 03:21 69.41673 18.69918 5286 ft 258 kts 71°
2026-04-26 03:22 69.42392 18.74443 5047 ft 243 kts 49°
2026-04-26 03:22 69.43733 18.76761 4883 ft 217 kts 11°
2026-04-26 03:22 69.45176 18.77299 4821 ft 207 kts 358°
2026-04-26 03:22 69.46629 18.77061 4761 ft 212 kts
2026-04-26 03:23 69.48011 18.78470 4811 ft 212 kts 17°
2026-04-26 03:23 69.49442 18.79441 4810 ft 211 kts 11°
2026-04-26 03:23 69.50377 18.80017 4802 ft 204 kts 12°
2026-04-26 03:23 69.51765 18.80972 4425 ft 203 kts 12°
2026-04-26 03:24 69.53535 18.82123 3908 ft 191 kts 12°
2026-04-26 03:24 69.54808 18.82960 3574 ft 183 kts 12°
2026-04-26 03:24 69.55991 18.83739 3280 ft 167 kts 12°
2026-04-26 03:24 69.57086 18.84455 2934 ft 157 kts 12°
2026-04-26 03:25 69.57784 18.84913 2733 ft 148 kts 11°
2026-04-26 03:25 69.58746 18.85547 2443 ft 140 kts 11°
2026-04-26 03:25 69.59659 18.86151 2172 ft 129 kts 11°
2026-04-26 03:25 69.60509 18.86704 1945 ft 124 kts 11°
2026-04-26 03:26 69.61351 18.87261 1681 ft 125 kts 11°
2026-04-26 03:26 69.62209 18.87816 1431 ft 128 kts 11°
2026-04-26 03:26 69.63087 18.88396 1174 ft 130 kts 13°
2026-04-26 03:26 69.63967 18.88975 933 ft 129 kts 12°
2026-04-26 03:27 69.64839 18.89564 714 ft 128 kts 13°
2026-04-26 03:27 69.65698 18.90142 479 ft 126 kts 13°
2026-04-26 03:27 69.66549 18.90700 256 ft 125 kts 10°
2026-04-26 03:27 69.67383 18.91263 56 ft 120 kts 14°
2026-04-26 03:28 69.68115 18.91744 34 ft 95 kts 12°
2026-04-26 03:28 69.68662 18.92109 26 ft 57 kts 13°
2026-04-26 03:28 69.68910 18.92272 23 ft 21 kts 13°
2026-04-26 03:28 69.68991 18.92328 22 ft 11 kts 13°
2026-04-26 03:29 69.69061 18.92375 23 ft 9 kts 13°
2026-04-26 03:29 69.69120 18.92416 23 ft 8 kts 13°
2026-04-26 03:29 69.69176 18.92454 23 ft 8 kts 13°
2026-04-26 03:29 69.69238 18.92496 23 ft 10 kts 12°
2026-04-26 03:30 69.69306 18.92562 22 ft 11 kts 41°
2026-04-26 03:30 69.69354 18.92555 22 ft 10 kts 238°
2026-04-26 03:30 69.69281 18.92511 22 ft 11 kts 193°
2026-04-26 03:30 69.69201 18.92467 28 ft 12 kts 191°
2026-04-26 03:31 69.69113 18.92411 23 ft 14 kts 194°
2026-04-26 03:31 69.69003 18.92333 26 ft 17 kts 193°
2026-04-26 03:31 69.68896 18.92264 22 ft 16 kts 192°
2026-04-26 03:31 69.68788 18.92194 21 ft 15 kts 198°
2026-04-26 03:32 69.68771 18.91951 20 ft 12 kts 280°
2026-04-26 03:32 69.68773 18.91739 21 ft 10 kts 238°
2026-04-26 03:32 69.68715 18.91679 20 ft 9 kts 193°
2026-04-26 03:32 69.68658 18.91639 20 ft 9 kts 194°
2026-04-26 03:33 69.68605 18.91605 22 ft 7 kts 191°
2026-04-26 03:33 69.68568 18.91582 24 ft 5 kts 195°
2026-04-26 03:33 69.68521 18.91546 26 ft 9 kts 192°
2026-04-26 03:33 69.68440 18.91501 28 ft 15 kts 181°
2026-04-26 03:34 69.68333 18.91499 27 ft 15 kts 185°
2026-04-26 03:34 69.68234 18.91434 29 ft 14 kts 193°
2026-04-26 03:34 69.68150 18.91379 34 ft 11 kts 193°
2026-04-26 03:34 69.68098 18.91277 34 ft 10 kts 255°
2026-04-26 03:35 69.68114 18.91109 34 ft 8 kts 282°
2026-04-26 03:35 69.68126 18.90967 34 ft 2 kts 283°
2026-04-26 03:35 69.68127 18.90947 34 ft 0 kts 282°